Orbital Elements at Epoch 2459200.5 (2020-Dec-17.0) TDB
Reference: JPL 19 (heliocentric ecliptic J2000)
Element | Value | Uncertainty (1-sigma) | Units |
e | .2823675230204572 | 5.7629e-08 | |
a | 2.524157131814545 | 1.4383e-08 | au |
q | 1.81141713478965 | 1.4584e-07 | au |
i | 8.283380553828334 | 4.876e-06 | deg |
node | 72.21269940010561 | 4.4308e-05 | deg |
peri | 279.035614220807 | 4.5501e-05 | deg |
M | 271.5883557899951 | 1.5034e-05 | deg |
tp | 2459560.232746570658 (2021-Dec-11.73274657) | 6.3027e-05 | TDB |
period | 1464.782042259339 4.01 | 1.252e-05 3.428e-08 | d yr |
n | .2457703532770797 | 2.1006e-09 | deg/d |
Q | 3.236897128839439 | 1.8444e-08 | au |
|
| | Orbit Determination Parameters
Additional Information
|